Time,TemperatureF,DewpointF,PressureIn,WindDirection,WindDirectionDegrees,WindSpeedMPH,WindSpeedGustMPH,Humidity,HourlyPrecipIn,Conditions,Clouds,dailyrainin,SoftwareType,DateUTC
2013-03-17 00:02:00,8.8,2.5,30.32,NNW,343,0.0,2.0,75,0.00,,,0.21,Wunderground v.1.15,2013-03-17 05:02:00,
2013-03-17 00:08:00,8.5,2.2,30.33,NNW,343,0.0,3.0,75,0.00,,,0.21,Wunderground v.1.15,2013-03-17 05:08:00,
2013-03-17 00:13:00,8.2,2.2,30.32,NNW,343,2.0,2.0,76,0.00,,,0.21,Wunderground v.1.15,2013-03-17 05:13:00,
2013-03-17 00:18:00,8.0,2.0,30.32,NNW,343,0.0,4.0,76,0.00,,,0.21,Wunderground v.1.15,2013-03-17 05:18:00,
2013-03-17 00:23:00,7.8,2.1,30.33,NNW,343,2.0,4.0,77,0.00,,,0.21,Wunderground v.1.15,2013-03-17 05:23:00,
2013-03-17 00:28:00,7.7,2.0,30.33,NNW,342,1.0,4.0,77,0.00,,,0.21,Wunderground v.1.15,2013-03-17 05:28:00,
2013-03-17 00:33:00,7.6,1.9,30.33,North,351,0.0,4.0,77,0.00,,,0.21,Wunderground v.1.15,2013-03-17 05:33:00,
2013-03-17 00:38:00,7.4,2.0,30.33,North,351,0.0,4.0,78,0.00,,,0.21,Wunderground v.1.15,2013-03-17 05:38:00,
2013-03-17 00:44:00,7.3,1.9,30.34,North,351,0.0,3.0,78,0.00,,,0.21,Wunderground v.1.15,2013-03-17 05:44:00,
2013-03-17 00:49:00,7.2,1.8,30.34,North,351,0.0,3.0,78,0.00,,,0.21,Wunderground v.1.15,2013-03-17 05:49:00,
2013-03-17 00:54:00,7.0,1.6,30.34,North,351,0.0,1.0,78,0.00,,,0.21,Wunderground v.1.15,2013-03-17 05:54:00,
2013-03-17 00:59:00,6.8,1.4,30.34,North,351,0.0,1.0,78,0.00,,,0.21,Wunderground v.1.15,2013-03-17 05:59:00,
2013-03-17 01:06:00,6.6,1.5,30.34,North,351,0.0,0.0,79,0.00,,,0.21,Wunderground v.1.15,2013-03-17 06:06:00,
2013-03-17 01:12:00,6.5,1.4,30.34,North,351,0.0,0.0,79,0.00,,,0.21,Wunderground v.1.15,2013-03-17 06:12:00,
2013-03-17 01:17:00,6.3,1.2,30.35,North,351,0.0,0.0,79,0.00,,,0.21,Wunderground v.1.15,2013-03-17 06:17:00,
2013-03-17 01:22:00,6.1,1.0,30.34,North,351,0.0,0.0,79,0.00,,,0.21,Wunderground v.1.15,2013-03-17 06:22:00,
2013-03-17 01:28:00,5.9,1.1,30.34,North,351,0.0,0.0,80,0.00,,,0.21,Wunderground v.1.15,2013-03-17 06:28:00,
2013-03-17 01:34:00,5.7,0.9,30.34,North,351,0.0,0.0,80,0.00,,,0.21,Wunderground v.1.15,2013-03-17 06:34:00,
2013-03-17 01:40:00,5.5,0.7,30.34,North,351,0.0,0.0,80,0.00,,,0.21,Wunderground v.1.15,2013-03-17 06:40:00,
2013-03-17 01:45:00,5.4,0.8,30.34,North,351,0.0,0.0,81,0.00,,,0.21,Wunderground v.1.15,2013-03-17 06:45:00,
2013-03-17 01:50:00,5.4,0.8,30.34,North,351,0.0,0.0,81,0.00,,,0.21,Wunderground v.1.15,2013-03-17 06:50:00,
2013-03-17 01:56:00,5.2,0.6,30.34,North,351,2.0,2.0,81,0.00,,,0.21,Wunderground v.1.15,2013-03-17 06:56:00,
2013-03-17 02:02:00,5.0,0.4,30.35,North,351,0.0,0.0,81,0.00,,,0.21,Wunderground v.1.15,2013-03-17 07:02:00,
2013-03-17 02:08:00,4.8,0.2,30.35,North,351,1.0,2.0,81,0.00,,,0.21,Wunderground v.1.15,2013-03-17 07:08:00,
2013-03-17 02:14:00,4.5,0.0,30.35,North,351,0.0,1.0,81,0.00,,,0.21,Wunderground v.1.15,2013-03-17 07:14:00,
2013-03-17 02:20:00,4.4,0.1,30.35,North,351,0.0,0.0,82,0.00,,,0.21,Wunderground v.1.15,2013-03-17 07:20:00,
2013-03-17 02:25:00,4.4,0.1,30.35,North,351,0.0,0.0,82,0.00,,,0.21,Wunderground v.1.15,2013-03-17 07:25:00,
2013-03-17 02:31:00,4.3,0.0,30.35,North,351,0.0,0.0,82,0.00,,,0.00,Wunderground v.1.15,2013-03-17 07:31:00,
2013-03-17 02:37:00,4.2,-0.1,30.35,North,351,0.0,0.0,82,0.00,,,0.00,Wunderground v.1.15,2013-03-17 07:37:00,
2013-03-17 02:43:00,4.0,0.0,30.35,North,351,0.0,0.0,83,0.00,,,0.00,Wunderground v.1.15,2013-03-17 07:43:00,
2013-03-17 02:48:00,3.8,-0.5,30.35,North,351,0.0,0.0,82,0.00,,,0.00,Wunderground v.1.15,2013-03-17 07:48:00,
2013-03-17 02:54:00,3.6,-0.7,30.35,North,351,0.0,0.0,82,0.00,,,0.00,Wunderground v.1.15,2013-03-17 07:54:00,
2013-03-17 03:00:00,3.3,-1.0,30.35,North,351,0.0,0.0,82,0.00,,,0.00,Wunderground v.1.15,2013-03-17 08:00:00,
2013-03-17 03:06:00,2.9,-1.3,30.35,North,351,0.0,0.0,82,0.00,,,0.00,Wunderground v.1.15,2013-03-17 08:06:00,
2013-03-17 03:11:00,2.7,-1.3,30.35,North,351,0.0,0.0,83,0.00,,,0.00,Wunderground v.1.15,2013-03-17 08:11:00,
2013-03-17 03:16:00,2.4,-1.6,30.35,North,351,0.0,0.0,83,0.00,,,0.00,Wunderground v.1.15,2013-03-17 08:16:00,
2013-03-17 03:21:00,2.2,-1.8,30.35,North,351,0.0,0.0,83,0.00,,,0.00,Wunderground v.1.15,2013-03-17 08:21:00,
2013-03-17 03:27:00,1.9,-2.1,30.34,North,351,0.0,0.0,83,0.00,,,0.00,Wunderground v.1.15,2013-03-17 08:27:00,
2013-03-17 03:32:00,1.7,-2.3,30.34,North,355,0.0,2.0,83,0.00,,,0.00,Wunderground v.1.15,2013-03-17 08:32:00,
2013-03-17 03:37:00,1.4,-2.3,30.34,North,355,0.0,3.0,84,0.00,,,0.00,Wunderground v.1.15,2013-03-17 08:37:00,
2013-03-17 03:42:00,1.4,-2.3,30.33,North,355,0.0,0.0,84,0.00,,,0.00,Wunderground v.1.15,2013-03-17 08:42:00,
2013-03-17 03:47:00,1.4,-2.1,30.33,North,355,0.0,3.0,85,0.00,,,0.00,Wunderground v.1.15,2013-03-17 08:47:00,
2013-03-17 03:53:00,1.5,-2.0,30.33,North,355,0.0,1.0,85,0.00,,,0.00,Wunderground v.1.15,2013-03-17 08:53:00,
2013-03-17 03:58:00,1.6,-1.9,30.33,North,355,0.0,1.0,85,0.00,,,0.00,Wunderground v.1.15,2013-03-17 08:58:00,
2013-03-17 04:03:00,1.7,-1.5,30.33,North,355,0.0,3.0,86,0.00,,,0.00,Wunderground v.1.15,2013-03-17 09:03:00,
2013-03-17 04:08:00,1.7,-1.8,30.33,North,355,0.0,3.0,85,0.00,,,0.00,Wunderground v.1.15,2013-03-17 09:08:00,
2013-03-17 04:13:00,1.6,-1.9,30.32,North,355,0.0,3.0,85,0.00,,,0.00,Wunderground v.1.15,2013-03-17 09:13:00,
2013-03-17 04:18:00,1.7,-1.8,30.33,North,360,0.0,3.0,85,0.00,,,0.00,Wunderground v.1.15,2013-03-17 09:18:00,
2013-03-17 04:23:00,1.8,-1.7,30.32,North,360,0.0,2.0,85,0.00,,,0.00,Wunderground v.1.15,2013-03-17 09:23:00,
2013-03-17 04:28:00,1.8,-1.7,30.32,North,360,0.0,2.0,85,0.00,,,0.00,Wunderground v.1.15,2013-03-17 09:28:00,
2013-03-17 04:33:00,1.9,-1.6,30.33,North,360,0.0,3.0,85,0.00,,,0.00,Wunderground v.1.15,2013-03-17 09:33:00,
2013-03-17 04:38:00,2.0,-1.5,30.32,North,360,4.0,4.0,85,0.00,,,0.00,Wunderground v.1.15,2013-03-17 09:38:00,
2013-03-17 04:44:00,2.1,-1.4,30.32,North,360,0.0,2.0,85,0.00,,,0.00,Wunderground v.1.15,2013-03-17 09:44:00,
2013-03-17 04:49:00,2.2,-1.3,30.33,North,360,0.0,2.0,85,0.00,,,0.00,Wunderground v.1.15,2013-03-17 09:49:00,
2013-03-17 04:54:00,2.1,-1.6,30.33,North,360,0.0,0.0,84,0.00,,,0.00,Wunderground v.1.15,2013-03-17 09:54:00,
2013-03-17 04:59:00,2.1,-1.4,30.33,North,360,0.0,0.0,85,0.00,,,0.00,Wunderground v.1.15,2013-03-17 09:59:00,
2013-03-17 05:04:00,2.1,-1.6,30.33,North,360,0.0,0.0,84,0.00,,,0.00,Wunderground v.1.15,2013-03-17 10:04:00,
2013-03-17 05:09:00,2.0,-1.7,30.33,North,360,1.0,3.0,84,0.00,,,0.00,Wunderground v.1.15,2013-03-17 10:09:00,
2013-03-17 05:14:00,2.0,-1.7,30.33,North,360,1.0,2.0,84,0.00,,,0.00,Wunderground v.1.15,2013-03-17 10:14:00,
2013-03-17 05:19:00,2.0,-1.7,30.33,North,5,1.0,4.0,84,0.00,,,0.00,Wunderground v.1.15,2013-03-17 10:19:00,
2013-03-17 05:24:00,2.1,-1.6,30.34,North,5,2.0,3.0,84,0.00,,,0.00,Wunderground v.1.15,2013-03-17 10:24:00,
2013-03-17 05:29:00,2.1,-1.6,30.34,North,5,1.0,3.0,84,0.00,,,0.00,Wunderground v.1.15,2013-03-17 10:29:00,
2013-03-17 05:35:00,2.2,-1.5,30.33,North,5,0.0,3.0,84,0.00,,,0.00,Wunderground v.1.15,2013-03-17 10:35:00,
2013-03-17 05:40:00,2.2,-1.5,30.34,North,5,0.0,3.0,84,0.00,,,0.00,Wunderground v.1.15,2013-03-17 10:40:00,
2013-03-17 05:45:00,2.2,-1.5,30.34,North,5,1.0,2.0,84,0.00,,,0.00,Wunderground v.1.15,2013-03-17 10:45:00,
2013-03-17 05:50:00,2.2,-1.5,30.34,North,5,1.0,3.0,84,0.00,,,0.00,Wunderground v.1.15,2013-03-17 10:50:00,
2013-03-17 05:55:00,2.3,-1.4,30.34,North,5,0.0,2.0,84,0.00,,,0.00,Wunderground v.1.15,2013-03-17 10:55:00,
2013-03-17 06:00:00,2.3,-1.4,30.34,North,5,0.0,1.0,84,0.00,,,0.00,Wunderground v.1.15,2013-03-17 11:00:00,
2013-03-17 06:05:00,2.4,-1.3,30.34,NNE,29,1.0,3.0,84,0.00,,,0.00,Wunderground v.1.15,2013-03-17 11:05:00,
2013-03-17 06:10:00,2.5,-1.2,30.34,NNE,29,4.0,4.0,84,0.00,,,0.00,Wunderground v.1.15,2013-03-17 11:10:00,
2013-03-17 06:16:00,2.6,-1.1,30.34,NE,35,3.0,4.0,84,0.00,,,0.00,Wunderground v.1.15,2013-03-17 11:16:00,
2013-03-17 06:21:00,2.8,-1.2,30.34,NE,35,0.0,3.0,83,0.00,,,0.00,Wunderground v.1.15,2013-03-17 11:21:00,
2013-03-17 06:26:00,3.0,-1.0,30.33,NE,35,1.0,4.0,83,0.00,,,0.00,Wunderground v.1.15,2013-03-17 11:26:00,
2013-03-17 06:32:00,3.1,-1.2,30.34,NE,35,3.0,3.0,82,0.00,,,0.00,Wunderground v.1.15,2013-03-17 11:32:00,
2013-03-17 06:37:00,3.2,-1.1,30.33,NE,36,2.0,5.0,82,0.00,,,0.00,Wunderground v.1.15,2013-03-17 11:37:00,
2013-03-17 06:42:00,3.2,-1.1,30.33,NE,36,0.0,2.0,82,0.00,,,0.00,Wunderground v.1.15,2013-03-17 11:42:00,
2013-03-17 06:47:00,3.2,-1.1,30.33,NE,36,0.0,3.0,82,0.00,,,0.00,Wunderground v.1.15,2013-03-17 11:47:00,
2013-03-17 06:52:00,3.1,-1.2,30.33,NE,36,2.0,2.0,82,0.00,,,0.00,Wunderground v.1.15,2013-03-17 11:52:00,
2013-03-17 06:57:00,3.1,-1.2,30.33,NE,36,0.0,3.0,82,0.00,,,0.00,Wunderground v.1.15,2013-03-17 11:57:00,
2013-03-17 07:02:00,3.0,-1.3,30.33,NE,36,0.0,2.0,82,0.00,,,0.00,Wunderground v.1.15,2013-03-17 12:02:00,
2013-03-17 07:08:00,3.0,-1.3,30.33,NE,36,3.0,3.0,82,0.00,,,0.00,Wunderground v.1.15,2013-03-17 12:08:00,
2013-03-17 07:13:00,2.9,-1.6,30.33,NE,36,0.0,1.0,81,0.00,,,0.00,Wunderground v.1.15,2013-03-17 12:13:00,
2013-03-17 07:18:00,2.9,-1.3,30.32,NE,36,3.0,3.0,82,0.00,,,0.00,Wunderground v.1.15,2013-03-17 12:18:00,
2013-03-17 07:23:00,3.1,-1.2,30.32,East,91,4.0,6.0,82,0.00,,,0.00,Wunderground v.1.15,2013-03-17 12:23:00,
2013-03-17 07:28:00,3.5,-0.8,30.32,ENE,67,2.0,6.0,82,0.00,,,0.00,Wunderground v.1.15,2013-03-17 12:28:00,
2013-03-17 07:33:00,3.8,-0.7,30.32,ENE,62,4.0,4.0,81,0.00,,,0.00,Wunderground v.1.15,2013-03-17 12:33:00,
2013-03-17 07:39:00,4.1,-0.4,30.31,East,99,4.0,8.0,81,0.00,,,0.00,Wunderground v.1.15,2013-03-17 12:39:00,
2013-03-17 07:44:00,4.5,-0.3,30.31,East,92,5.0,8.0,80,0.00,,,0.00,Wunderground v.1.15,2013-03-17 12:44:00,
2013-03-17 07:49:00,4.7,-0.4,30.31,ENE,66,3.0,8.0,79,0.00,,,0.00,Wunderground v.1.15,2013-03-17 12:49:00,
2013-03-17 07:54:00,5.0,-0.1,30.30,ENE,68,4.0,9.0,79,0.00,,,0.00,Wunderground v.1.15,2013-03-17 12:54:00,
2013-03-17 07:59:00,5.3,-0.1,30.30,NE,44,5.0,9.0,78,0.00,,,0.00,Wunderground v.1.15,2013-03-17 12:59:00,
2013-03-17 08:04:00,5.5,0.1,30.30,East,79,3.0,8.0,78,0.00,,,0.00,Wunderground v.1.15,2013-03-17 13:04:00,
2013-03-17 08:09:00,5.9,0.2,30.30,East,100,2.0,9.0,77,0.00,,,0.00,Wunderground v.1.15,2013-03-17 13:09:00,
2013-03-17 08:14:00,6.2,0.5,30.30,ENE,75,5.0,6.0,77,0.00,,,0.00,Wunderground v.1.15,2013-03-17 13:14:00,
2013-03-17 08:19:00,6.4,0.4,30.30,ENE,62,3.0,6.0,76,0.00,,,0.00,Wunderground v.1.15,2013-03-17 13:19:00,
2013-03-17 08:24:00,6.7,0.5,30.30,East,84,6.0,7.0,75,0.00,,,0.00,Wunderground v.1.15,2013-03-17 13:24:00,
2013-03-17 08:29:00,6.9,0.6,30.30,East,90,5.0,7.0,75,0.00,,,0.00,Wunderground v.1.15,2013-03-17 13:29:00,
2013-03-17 08:35:00,7.3,1.0,30.29,East,92,5.0,8.0,75,0.00,,,0.00,Wunderground v.1.15,2013-03-17 13:35:00,
2013-03-17 08:40:00,7.7,1.1,30.30,East,95,6.0,8.0,74,0.00,,,0.00,Wunderground v.1.15,2013-03-17 13:40:00,
2013-03-17 08:45:00,8.1,1.2,30.30,ENE,63,4.0,7.0,73,0.00,,,0.00,Wunderground v.1.15,2013-03-17 13:45:00,
2013-03-17 08:50:00,8.4,1.5,30.30,ENE,70,5.0,8.0,73,0.00,,,0.00,Wunderground v.1.15,2013-03-17 13:50:00,
2013-03-17 08:55:00,8.9,2.0,30.31,ESE,113,6.0,11.0,73,0.00,,,0.00,Wunderground v.1.15,2013-03-17 13:55:00,
2013-03-17 09:00:00,9.2,2.0,30.30,ESE,103,6.0,6.0,72,0.00,,,0.00,Wunderground v.1.15,2013-03-17 14:00:00,
2013-03-17 09:05:00,9.4,1.9,30.31,ESE,107,5.0,9.0,71,0.00,,,0.00,Wunderground v.1.15,2013-03-17 14:05:00,
2013-03-17 09:10:00,9.6,1.8,30.31,ENE,69,0.0,6.0,70,0.00,,,0.00,Wunderground v.1.15,2013-03-17 14:10:00,
2013-03-17 09:15:00,9.7,1.9,30.31,South,181,4.0,8.0,70,0.00,,,0.00,Wunderground v.1.15,2013-03-17 14:15:00,
2013-03-17 09:20:00,9.9,2.1,30.31,ESE,108,8.0,8.0,70,0.00,,,0.00,Wunderground v.1.15,2013-03-17 14:20:00,
2013-03-17 09:26:00,10.1,2.3,30.30,SE,126,4.0,12.0,70,0.00,,,0.00,Wunderground v.1.15,2013-03-17 14:26:00,
2013-03-17 09:31:00,10.4,2.2,30.31,ESE,119,1.0,6.0,69,0.00,,,0.00,Wunderground v.1.15,2013-03-17 14:31:00,
2013-03-17 09:37:00,11.0,2.5,30.31,SE,136,2.0,9.0,68,0.00,,,0.00,Wunderground v.1.15,2013-03-17 14:37:00,
2013-03-17 09:42:00,11.4,2.9,30.31,SE,138,6.0,7.0,68,0.00,,,0.00,Wunderground v.1.15,2013-03-17 14:42:00,
2013-03-17 09:47:00,12.0,3.5,30.30,SE,133,8.0,12.0,68,0.00,,,0.00,Wunderground v.1.15,2013-03-17 14:47:00,
2013-03-17 09:52:00,12.3,3.4,30.31,East,97,8.0,8.0,67,0.00,,,0.00,Wunderground v.1.15,2013-03-17 14:52:00,
2013-03-17 09:57:00,12.6,3.4,30.31,ESE,122,2.0,8.0,66,0.00,,,0.00,Wunderground v.1.15,2013-03-17 14:57:00,
2013-03-17 10:02:00,13.1,3.5,30.30,ESE,102,8.0,12.0,65,0.00,,,0.00,Wunderground v.1.15,2013-03-17 15:02:00,
2013-03-17 10:08:00,13.3,3.7,30.30,ESE,104,6.0,12.0,65,0.00,,,0.00,Wunderground v.1.15,2013-03-17 15:08:00,
2013-03-17 10:13:00,13.6,3.7,30.30,East,84,6.0,12.0,64,0.00,,,0.00,Wunderground v.1.15,2013-03-17 15:13:00,
2013-03-17 10:18:00,14.1,4.5,30.30,East,88,11.0,12.0,65,0.00,,,0.00,Wunderground v.1.15,2013-03-17 15:18:00,
2013-03-17 10:23:00,14.6,4.6,30.29,East,84,4.0,15.0,64,0.00,,,0.00,Wunderground v.1.15,2013-03-17 15:23:00,
2013-03-17 10:28:00,15.0,4.7,30.29,SSE,167,5.0,15.0,63,0.00,,,0.00,Wunderground v.1.15,2013-03-17 15:28:00,
2013-03-17 10:33:00,15.4,5.0,30.28,South,172,4.0,11.0,63,0.00,,,0.00,Wunderground v.1.15,2013-03-17 15:33:00,
2013-03-17 10:39:00,16.2,5.8,30.29,ESE,109,6.0,11.0,63,0.00,,,0.00,Wunderground v.1.15,2013-03-17 15:39:00,
2013-03-17 10:44:00,16.6,5.8,30.29,SE,133,5.0,12.0,62,0.00,,,0.00,Wunderground v.1.15,2013-03-17 15:44:00,
2013-03-17 10:49:00,16.5,5.7,30.29,SE,136,5.0,12.0,62,0.00,,,0.00,Wunderground v.1.15,2013-03-17 15:49:00,
2013-03-17 10:54:00,16.4,5.3,30.28,SSE,157,2.0,12.0,61,0.00,,,0.00,Wunderground v.1.15,2013-03-17 15:54:00,
2013-03-17 10:59:00,16.9,6.1,30.28,ESE,115,8.0,12.0,62,0.00,,,0.00,Wunderground v.1.15,2013-03-17 15:59:00,
2013-03-17 11:05:00,17.1,5.9,30.28,SE,140,6.0,13.0,61,0.00,,,0.00,Wunderground v.1.15,2013-03-17 16:05:00,
2013-03-17 11:10:00,17.2,6.0,30.28,SE,132,11.0,14.0,61,0.00,,,0.00,Wunderground v.1.15,2013-03-17 16:10:00,
2013-03-17 11:15:00,17.2,6.4,30.27,East,80,4.0,11.0,62,0.00,,,0.00,Wunderground v.1.15,2013-03-17 16:15:00,
2013-03-17 11:20:00,17.6,6.4,30.27,SSW,192,11.0,13.0,61,0.00,,,0.00,Wunderground v.1.15,2013-03-17 16:20:00,
2013-03-17 11:25:00,18.3,6.7,30.27,SE,130,0.0,9.0,60,0.00,,,0.00,Wunderground v.1.15,2013-03-17 16:25:00,
2013-03-17 11:30:00,18.3,6.4,30.27,SSE,161,8.0,18.0,59,0.00,,,0.00,Wunderground v.1.15,2013-03-17 16:30:00,
2013-03-17 11:35:00,18.6,7.4,30.27,SE,140,11.0,11.0,61,0.00,,,0.00,Wunderground v.1.15,2013-03-17 16:35:00,
2013-03-17 11:40:00,18.8,6.8,30.27,SE,140,6.0,7.0,59,0.00,,,0.00,Wunderground v.1.15,2013-03-17 16:40:00,
2013-03-17 11:45:00,19.2,7.6,30.26,ESE,111,6.0,9.0,60,0.00,,,0.00,Wunderground v.1.15,2013-03-17 16:45:00,
2013-03-17 11:51:00,19.5,7.9,30.26,SSE,160,9.0,9.0,60,0.00,,,0.00,Wunderground v.1.15,2013-03-17 16:51:00,
2013-03-17 11:56:00,19.5,7.5,30.26,ESE,114,5.0,12.0,59,0.00,,,0.00,Wunderground v.1.15,2013-03-17 16:56:00,
2013-03-17 12:01:00,19.7,7.7,30.26,SE,133,2.0,7.0,59,0.00,,,0.00,Wunderground v.1.15,2013-03-17 17:01:00,
2013-03-17 12:07:00,19.9,8.2,30.26,SE,143,11.0,11.0,60,0.00,,,0.00,Wunderground v.1.15,2013-03-17 17:07:00,
2013-03-17 12:12:00,20.4,8.0,30.26,South,174,10.0,11.0,58,0.00,,,0.00,Wunderground v.1.15,2013-03-17 17:12:00,
2013-03-17 12:17:00,20.4,8.0,30.25,East,89,6.0,16.0,58,0.00,,,0.00,Wunderground v.1.15,2013-03-17 17:17:00,
2013-03-17 12:22:00,20.9,8.8,30.25,SSE,157,10.0,10.0,59,0.00,,,0.00,Wunderground v.1.15,2013-03-17 17:22:00,
2013-03-17 12:27:00,20.9,8.4,30.25,SSE,153,5.0,14.0,58,0.00,,,0.00,Wunderground v.1.15,2013-03-17 17:27:00,
2013-03-17 12:33:00,21.0,8.9,30.25,East,98,6.0,7.0,59,0.00,,,0.00,Wunderground v.1.15,2013-03-17 17:33:00,
2013-03-17 12:38:00,21.9,10.1,30.25,East,101,11.0,11.0,60,0.00,,,0.00,Wunderground v.1.15,2013-03-17 17:38:00,
2013-03-17 12:43:00,22.3,9.4,30.25,ESE,119,11.0,12.0,57,0.00,,,0.00,Wunderground v.1.15,2013-03-17 17:43:00,
2013-03-17 12:48:00,22.3,9.7,30.25,ESE,121,5.0,12.0,58,0.00,,,0.00,Wunderground v.1.15,2013-03-17 17:48:00,
2013-03-17 12:53:00,23.0,10.4,30.24,SE,126,6.0,12.0,58,0.00,,,0.00,Wunderground v.1.15,2013-03-17 17:53:00,
2013-03-17 12:58:00,23.3,10.3,30.23,East,85,4.0,12.0,57,0.00,,,0.00,Wunderground v.1.15,2013-03-17 17:58:00,
2013-03-17 13:03:00,23.3,10.7,30.23,ESE,122,5.0,7.0,58,0.00,,,0.00,Wunderground v.1.15,2013-03-17 18:03:00,
2013-03-17 13:08:00,23.1,9.7,30.23,ESE,123,8.0,11.0,56,0.00,,,0.00,Wunderground v.1.15,2013-03-17 18:08:00,
2013-03-17 13:13:00,23.4,10.4,30.23,ESE,105,0.0,9.0,57,0.00,,,0.00,Wunderground v.1.15,2013-03-17 18:13:00,
2013-03-17 13:18:00,24.2,11.1,30.22,ESE,116,4.0,14.0,57,0.00,,,0.00,Wunderground v.1.15,2013-03-17 18:18:00,
2013-03-17 13:23:00,24.5,11.0,30.22,SSE,153,15.0,15.0,56,0.00,,,0.00,Wunderground v.1.15,2013-03-17 18:23:00,
2013-03-17 13:28:00,24.3,10.4,30.22,ESE,105,4.0,15.0,55,0.00,,,0.00,Wunderground v.1.15,2013-03-17 18:28:00,
2013-03-17 13:33:00,24.0,10.2,30.22,SE,130,6.0,14.0,55,0.00,,,0.00,Wunderground v.1.15,2013-03-17 18:33:00,
2013-03-17 13:38:00,23.9,10.5,30.22,SSE,157,2.0,14.0,56,0.00,,,0.00,Wunderground v.1.15,2013-03-17 18:38:00,
2013-03-17 13:44:00,24.2,10.7,30.21,East,101,6.0,8.0,56,0.00,,,0.00,Wunderground v.1.15,2013-03-17 18:44:00,
2013-03-17 13:49:00,24.4,10.9,30.20,ESE,119,6.0,12.0,56,0.00,,,0.00,Wunderground v.1.15,2013-03-17 18:49:00,
2013-03-17 13:54:00,24.7,11.2,30.20,SE,145,4.0,13.0,56,0.00,,,0.00,Wunderground v.1.15,2013-03-17 18:54:00,
2013-03-17 13:59:00,25.2,11.3,30.19,ENE,78,4.0,13.0,55,0.00,,,0.00,Wunderground v.1.15,2013-03-17 18:59:00,
2013-03-17 14:04:00,25.5,12.0,30.18,East,80,4.0,18.0,56,0.00,,,0.00,Wunderground v.1.15,2013-03-17 19:04:00,
2013-03-17 14:09:00,26.0,11.6,30.18,South,187,5.0,18.0,54,0.00,,,0.00,Wunderground v.1.15,2013-03-17 19:09:00,
2013-03-17 14:14:00,25.3,11.4,30.18,East,91,5.0,12.0,55,0.00,,,0.00,Wunderground v.1.15,2013-03-17 19:14:00,
2013-03-17 14:19:00,25.4,11.5,30.18,SE,140,8.0,12.0,55,0.00,,,0.00,Wunderground v.1.15,2013-03-17 19:19:00,
2013-03-17 14:25:00,25.2,11.3,30.17,East,87,5.0,12.0,55,0.00,,,0.00,Wunderground v.1.15,2013-03-17 19:25:00,
2013-03-17 14:30:00,25.2,11.3,30.17,SE,139,4.0,12.0,55,0.00,,,0.00,Wunderground v.1.15,2013-03-17 19:30:00,
2013-03-17 14:35:00,25.5,11.1,30.17,SE,141,5.0,13.0,54,0.00,,,0.00,Wunderground v.1.15,2013-03-17 19:35:00,
2013-03-17 14:40:00,25.5,11.6,30.16,South,180,7.0,7.0,55,0.00,,,0.00,Wunderground v.1.15,2013-03-17 19:40:00,
2013-03-17 14:46:00,25.5,11.6,30.16,ESE,123,7.0,13.0,55,0.00,,,0.00,Wunderground v.1.15,2013-03-17 19:46:00,
2013-03-17 14:51:00,25.8,12.2,30.16,East,92,5.0,7.0,56,0.00,,,0.00,Wunderground v.1.15,2013-03-17 19:51:00,
2013-03-17 14:56:00,26.0,12.0,30.14,South,171,9.0,13.0,55,0.00,,,0.00,Wunderground v.1.15,2013-03-17 19:56:00,
2013-03-17 15:01:00,25.9,11.9,30.14,SE,132,5.0,9.0,55,0.00,,,0.00,Wunderground v.1.15,2013-03-17 20:01:00,
2013-03-17 15:06:00,26.3,12.3,30.13,SSE,150,6.0,9.0,55,0.00,,,0.00,Wunderground v.1.15,2013-03-17 20:06:00,
2013-03-17 15:12:00,26.8,12.4,30.13,SE,144,7.0,7.0,54,0.00,,,0.00,Wunderground v.1.15,2013-03-17 20:12:00,
2013-03-17 15:17:00,27.2,12.7,30.13,ESE,117,6.0,13.0,54,0.00,,,0.00,Wunderground v.1.15,2013-03-17 20:17:00,
2013-03-17 15:22:00,27.5,12.2,30.12,ESE,119,9.0,9.0,52,0.00,,,0.00,Wunderground v.1.15,2013-03-17 20:22:00,
2013-03-17 15:27:00,28.3,13.8,30.12,East,89,11.0,11.0,54,0.00,,,0.00,Wunderground v.1.15,2013-03-17 20:27:00,
2013-03-17 15:32:00,28.1,13.1,30.11,East,95,4.0,8.0,53,0.00,,,0.00,Wunderground v.1.15,2013-03-17 20:32:00,
2013-03-17 15:38:00,28.6,13.2,30.11,East,92,7.0,11.0,52,0.00,,,0.00,Wunderground v.1.15,2013-03-17 20:38:00,
2013-03-17 15:43:00,28.4,12.6,30.11,SSE,153,2.0,10.0,51,0.00,,,0.00,Wunderground v.1.15,2013-03-17 20:43:00,
2013-03-17 15:48:00,28.4,12.6,30.11,ESE,109,5.0,13.0,51,0.00,,,0.00,Wunderground v.1.15,2013-03-17 20:48:00,
2013-03-17 15:53:00,28.7,13.7,30.10,South,187,7.0,12.0,53,0.00,,,0.00,Wunderground v.1.15,2013-03-17 20:53:00,
2013-03-17 15:58:00,28.5,12.6,30.10,SSE,155,5.0,12.0,51,0.00,,,0.00,Wunderground v.1.15,2013-03-17 20:58:00,
2013-03-17 16:03:00,28.6,12.7,30.10,SE,144,12.0,12.0,51,0.00,,,0.00,Wunderground v.1.15,2013-03-17 21:03:00,
2013-03-17 16:09:00,28.5,13.1,30.09,ESE,106,8.0,13.0,52,0.00,,,0.00,Wunderground v.1.15,2013-03-17 21:09:00,
2013-03-17 16:14:00,28.2,13.2,30.09,East,93,5.0,9.0,53,0.00,,,0.00,Wunderground v.1.15,2013-03-17 21:14:00,
2013-03-17 16:19:00,28.0,13.1,30.09,East,92,6.0,12.0,53,0.00,,,0.00,Wunderground v.1.15,2013-03-17 21:19:00,
2013-03-17 16:24:00,27.8,13.3,30.09,ESE,116,2.0,11.0,54,0.00,,,0.00,Wunderground v.1.15,2013-03-17 21:24:00,
2013-03-17 16:29:00,27.9,13.0,30.09,ESE,118,6.0,11.0,53,0.00,,,0.00,Wunderground v.1.15,2013-03-17 21:29:00,
2013-03-17 16:34:00,27.9,13.4,30.09,ESE,118,6.0,10.0,54,0.00,,,0.00,Wunderground v.1.15,2013-03-17 21:34:00,
2013-03-17 16:39:00,27.8,13.3,30.09,ESE,116,5.0,15.0,54,0.00,,,0.00,Wunderground v.1.15,2013-03-17 21:39:00,
2013-03-17 16:44:00,27.8,12.9,30.08,SE,125,7.0,11.0,53,0.00,,,0.00,Wunderground v.1.15,2013-03-17 21:44:00,
2013-03-17 16:50:00,27.7,13.2,30.08,ESE,118,14.0,14.0,54,0.00,,,0.00,Wunderground v.1.15,2013-03-17 21:50:00,
2013-03-17 16:55:00,27.8,13.7,30.08,SE,144,5.0,10.0,55,0.00,,,0.00,Wunderground v.1.15,2013-03-17 21:55:00,
2013-03-17 17:00:00,27.9,13.4,30.08,SE,145,11.0,11.0,54,0.00,,,0.00,Wunderground v.1.15,2013-03-17 22:00:00,
2013-03-17 17:05:00,27.9,13.0,30.08,SE,133,9.0,13.0,53,0.00,,,0.00,Wunderground v.1.15,2013-03-17 22:05:00,
2013-03-17 17:10:00,27.7,13.2,30.08,ESE,112,8.0,8.0,54,0.00,,,0.00,Wunderground v.1.15,2013-03-17 22:10:00,
2013-03-17 17:15:00,27.8,13.7,30.08,ESE,121,4.0,9.0,55,0.00,,,0.00,Wunderground v.1.15,2013-03-17 22:15:00,
2013-03-17 17:21:00,27.9,13.4,30.08,SE,141,6.0,12.0,54,0.00,,,0.00,Wunderground v.1.15,2013-03-17 22:21:00,
2013-03-17 17:26:00,28.0,13.9,30.08,ESE,109,5.0,12.0,55,0.00,,,0.00,Wunderground v.1.15,2013-03-17 22:26:00,
2013-03-17 17:31:00,28.0,13.9,30.08,SE,124,4.0,7.0,55,0.00,,,0.00,Wunderground v.1.15,2013-03-17 22:31:00,
2013-03-17 17:36:00,28.1,13.6,30.08,SE,139,6.0,12.0,54,0.00,,,0.00,Wunderground v.1.15,2013-03-17 22:36:00,
2013-03-17 17:41:00,27.9,14.2,30.08,South,187,6.0,6.0,56,0.00,,,0.00,Wunderground v.1.15,2013-03-17 22:41:00,
2013-03-17 17:46:00,27.8,13.7,30.07,ESE,123,6.0,14.0,55,0.00,,,0.00,Wunderground v.1.15,2013-03-17 22:46:00,
2013-03-17 17:52:00,27.7,13.6,30.07,ESE,107,6.0,9.0,55,0.00,,,0.00,Wunderground v.1.15,2013-03-17 22:52:00,
2013-03-17 17:57:00,27.7,14.0,30.06,East,82,5.0,14.0,56,0.00,,,0.00,Wunderground v.1.15,2013-03-17 22:57:00,
2013-03-17 18:02:00,27.7,14.0,30.06,East,98,4.0,12.0,56,0.00,,,0.00,Wunderground v.1.15,2013-03-17 23:02:00,
2013-03-17 18:07:00,27.8,14.5,30.05,East,96,7.0,12.0,57,0.00,,,0.00,Wunderground v.1.15,2013-03-17 23:07:00,
2013-03-17 18:12:00,27.7,14.4,30.05,ESE,105,7.0,7.0,57,0.00,,,0.00,Wunderground v.1.15,2013-03-17 23:12:00,
2013-03-17 18:17:00,27.8,14.5,30.04,SSE,162,9.0,9.0,57,0.00,,,0.00,Wunderground v.1.15,2013-03-17 23:17:00,
2013-03-17 18:22:00,27.7,14.4,30.04,ESE,108,8.0,14.0,57,0.00,,,0.00,Wunderground v.1.15,2013-03-17 23:22:00,
2013-03-17 18:28:00,27.5,13.8,30.04,NE,38,2.0,14.0,56,0.00,,,0.00,Wunderground v.1.15,2013-03-17 23:28:00,
2013-03-17 18:33:00,27.4,14.1,30.04,SE,144,7.0,13.0,57,0.00,,,0.00,Wunderground v.1.15,2013-03-17 23:33:00,
2013-03-17 18:38:00,27.4,14.1,30.04,East,96,5.0,13.0,57,0.00,,,0.00,Wunderground v.1.15,2013-03-17 23:38:00,
2013-03-17 18:43:00,27.4,14.9,30.04,SE,144,4.0,7.0,59,0.00,,,0.00,Wunderground v.1.15,2013-03-17 23:43:00,
2013-03-17 18:49:00,27.4,14.5,30.03,East,88,8.0,11.0,58,0.00,,,0.00,Wunderground v.1.15,2013-03-17 23:49:00,
2013-03-17 18:54:00,27.3,14.1,30.03,SE,130,2.0,12.0,57,0.00,,,0.00,Wunderground v.1.15,2013-03-17 23:54:00,
2013-03-17 18:59:00,27.2,14.4,30.03,ESE,104,5.0,12.0,58,0.00,,,0.00,Wunderground v.1.15,2013-03-17 23:59:00,
2013-03-17 19:04:00,27.0,14.2,30.03,SE,138,4.0,12.0,58,0.00,,,0.00,Wunderground v.1.15,2013-03-18 00:04:00,
2013-03-17 19:09:00,26.7,14.3,30.03,ESE,107,6.0,12.0,59,0.00,,,0.00,Wunderground v.1.15,2013-03-18 00:09:00,
2013-03-17 19:14:00,26.4,14.4,30.03,East,94,11.0,11.0,60,0.00,,,0.00,Wunderground v.1.15,2013-03-18 00:14:00,
2013-03-17 19:19:00,26.2,14.2,30.02,East,85,6.0,11.0,60,0.00,,,0.00,Wunderground v.1.15,2013-03-18 00:19:00,
2013-03-17 19:24:00,26.1,14.5,30.02,East,83,3.0,11.0,61,0.00,,,0.00,Wunderground v.1.15,2013-03-18 00:24:00,
2013-03-17 19:30:00,26.1,14.1,30.02,ESE,109,8.0,11.0,60,0.00,,,0.00,Wunderground v.1.15,2013-03-18 00:30:00,
2013-03-17 19:35:00,26.0,14.4,30.02,ESE,111,8.0,14.0,61,0.00,,,0.00,Wunderground v.1.15,2013-03-18 00:35:00,
2013-03-17 19:40:00,25.9,13.9,30.02,ESE,111,8.0,14.0,60,0.00,,,0.00,Wunderground v.1.15,2013-03-18 00:40:00,
2013-03-17 19:45:00,25.8,14.2,30.01,ESE,108,5.0,12.0,61,0.00,,,0.00,Wunderground v.1.15,2013-03-18 00:45:00,
2013-03-17 19:50:00,25.8,14.2,30.01,ESE,111,9.0,12.0,61,0.00,,,0.00,Wunderground v.1.15,2013-03-18 00:50:00,
2013-03-17 19:55:00,25.8,14.2,30.01,SE,126,7.0,13.0,61,0.00,,,0.00,Wunderground v.1.15,2013-03-18 00:55:00,
2013-03-17 20:00:00,25.7,14.5,30.00,ESE,111,5.0,13.0,62,0.00,,,0.00,Wunderground v.1.15,2013-03-18 01:00:00,
2013-03-17 20:05:00,25.7,14.1,30.01,ESE,102,4.0,12.0,61,0.00,,,0.00,Wunderground v.1.15,2013-03-18 01:05:00,
2013-03-17 20:10:00,25.7,14.1,30.01,SE,126,4.0,6.0,61,0.00,,,0.00,Wunderground v.1.15,2013-03-18 01:10:00,
2013-03-17 20:15:00,25.7,14.5,30.00,East,94,5.0,12.0,62,0.00,,,0.00,Wunderground v.1.15,2013-03-18 01:15:00,
2013-03-17 20:20:00,25.7,14.5,30.01,ESE,117,9.0,9.0,62,0.00,,,0.00,Wunderground v.1.15,2013-03-18 01:20:00,
2013-03-17 20:25:00,25.7,14.1,30.01,ESE,113,5.0,9.0,61,0.00,,,0.00,Wunderground v.1.15,2013-03-18 01:25:00,
2013-03-17 20:31:00,25.7,14.5,30.01,ESE,109,4.0,5.0,62,0.00,,,0.00,Wunderground v.1.15,2013-03-18 01:31:00,
2013-03-17 20:36:00,25.7,14.5,30.01,ESE,121,6.0,7.0,62,0.00,,,0.00,Wunderground v.1.15,2013-03-18 01:36:00,
2013-03-17 20:41:00,25.7,14.5,30.00,SSE,155,7.0,7.0,62,0.00,,,0.00,Wunderground v.1.15,2013-03-18 01:41:00,
2013-03-17 20:46:00,25.7,14.5,30.00,ESE,115,7.0,15.0,62,0.00,,,0.00,Wunderground v.1.15,2013-03-18 01:46:00,
2013-03-17 20:51:00,25.6,14.4,30.00,East,101,6.0,6.0,62,0.00,,,0.00,Wunderground v.1.15,2013-03-18 01:51:00,
2013-03-17 20:56:00,25.6,14.4,30.00,SE,140,8.0,14.0,62,0.00,,,0.00,Wunderground v.1.15,2013-03-18 01:56:00,
2013-03-17 21:01:00,25.6,14.4,30.00,SE,133,5.0,7.0,62,0.00,,,0.00,Wunderground v.1.15,2013-03-18 02:01:00,
2013-03-17 21:07:00,25.6,14.4,30.00,ESE,113,4.0,8.0,62,0.00,,,0.00,Wunderground v.1.15,2013-03-18 02:07:00,
2013-03-17 21:12:00,25.5,14.6,29.99,ESE,110,6.0,6.0,63,0.00,,,0.00,Wunderground v.1.15,2013-03-18 02:12:00,
2013-03-17 21:17:00,25.5,14.6,29.99,East,85,4.0,7.0,63,0.00,,,0.00,Wunderground v.1.15,2013-03-18 02:17:00,
2013-03-17 21:22:00,25.6,14.7,29.99,East,94,4.0,7.0,63,0.00,,,0.00,Wunderground v.1.15,2013-03-18 02:22:00,
2013-03-17 21:27:00,25.6,15.1,29.99,ESE,119,4.0,7.0,64,0.00,,,0.00,Wunderground v.1.15,2013-03-18 02:27:00,
2013-03-17 21:32:00,25.6,15.1,29.99,ESE,104,6.0,6.0,64,0.00,,,0.00,Wunderground v.1.15,2013-03-18 02:32:00,
2013-03-17 21:37:00,25.6,15.5,29.99,SSE,155,5.0,9.0,65,0.00,,,0.00,Wunderground v.1.15,2013-03-18 02:37:00,
2013-03-17 21:42:00,25.7,15.6,29.99,SE,128,2.0,8.0,65,0.00,,,0.00,Wunderground v.1.15,2013-03-18 02:42:00,
2013-03-17 21:47:00,25.7,15.2,29.99,ESE,102,5.0,8.0,64,0.00,,,0.00,Wunderground v.1.15,2013-03-18 02:47:00,
2013-03-17 21:53:00,25.8,15.6,29.98,SE,128,1.0,7.0,65,0.00,,,0.00,Wunderground v.1.15,2013-03-18 02:53:00,
2013-03-17 21:58:00,25.9,15.7,29.98,East,92,5.0,8.0,65,0.00,,,0.00,Wunderground v.1.15,2013-03-18 02:58:00,
2013-03-17 22:03:00,25.9,15.7,29.98,SE,130,4.0,9.0,65,0.00,,,0.00,Wunderground v.1.15,2013-03-18 03:03:00,
2013-03-17 22:08:00,25.9,15.7,29.98,ESE,105,7.0,9.0,65,0.00,,,0.00,Wunderground v.1.15,2013-03-18 03:08:00,
2013-03-17 22:13:00,26.0,15.8,29.98,SE,132,0.0,7.0,65,0.00,,,0.00,Wunderground v.1.15,2013-03-18 03:13:00,
2013-03-17 22:19:00,26.0,15.8,29.97,SE,130,4.0,7.0,65,0.00,,,0.00,Wunderground v.1.15,2013-03-18 03:19:00,
2013-03-17 22:24:00,26.1,15.9,29.97,SE,146,2.0,9.0,65,0.00,,,0.00,Wunderground v.1.15,2013-03-18 03:24:00,
2013-03-17 22:29:00,26.1,16.3,29.97,SE,137,5.0,9.0,66,0.00,,,0.00,Wunderground v.1.15,2013-03-18 03:29:00,
2013-03-17 22:34:00,26.2,16.4,29.97,SE,144,5.0,6.0,66,0.00,,,0.00,Wunderground v.1.15,2013-03-18 03:34:00,
2013-03-17 22:39:00,26.2,16.4,29.97,SE,125,5.0,9.0,66,0.00,,,0.00,Wunderground v.1.15,2013-03-18 03:39:00,
2013-03-17 22:44:00,26.3,16.5,29.97,SE,140,0.0,6.0,66,0.00,,,0.00,Wunderground v.1.15,2013-03-18 03:44:00,
2013-03-17 22:49:00,26.4,16.6,29.97,SE,134,4.0,8.0,66,0.00,,,0.00,Wunderground v.1.15,2013-03-18 03:49:00,
2013-03-17 22:54:00,26.5,16.7,29.97,SSE,150,4.0,9.0,66,0.00,,,0.00,Wunderground v.1.15,2013-03-18 03:54:00,
2013-03-17 22:59:00,26.5,16.7,29.97,SSE,153,8.0,9.0,66,0.00,,,0.00,Wunderground v.1.15,2013-03-18 03:59:00,
2013-03-17 23:00:00,26.5,16.7,29.96,SSE,148,2.0,9.0,66,0.00,,,0.00,Wunderground v.1.15,2013-03-18 04:00:00,
2013-03-17 23:02:00,26.5,17.0,29.96,SE,136,11.0,11.0,67,0.00,,,0.00,Wunderground v.1.15,2013-03-18 04:02:00,
2013-03-17 23:07:00,26.5,17.0,29.96,SE,144,0.0,11.0,67,0.00,,,0.00,Wunderground v.1.15,2013-03-18 04:07:00,
2013-03-17 23:12:00,26.6,17.1,29.96,SE,136,5.0,7.0,67,0.00,,,0.00,Wunderground v.1.15,2013-03-18 04:12:00,
2013-03-17 23:18:00,26.5,17.4,29.96,SE,146,5.0,7.0,68,0.00,,,0.00,Wunderground v.1.15,2013-03-18 04:18:00,
2013-03-17 23:23:00,26.6,17.5,29.96,ESE,115,6.0,8.0,68,0.00,,,0.00,Wunderground v.1.15,2013-03-18 04:23:00,
2013-03-17 23:28:00,26.6,17.8,29.95,ESE,113,7.0,8.0,69,0.00,,,0.00,Wunderground v.1.15,2013-03-18 04:28:00,
2013-03-17 23:33:00,26.6,17.8,29.95,SSE,158,1.0,8.0,69,0.00,,,0.00,Wunderground v.1.15,2013-03-18 04:33:00,
2013-03-17 23:38:00,26.7,18.2,29.95,SSE,147,5.0,9.0,70,0.00,,,0.00,Wunderground v.1.15,2013-03-18 04:38:00,
2013-03-17 23:43:00,26.9,18.4,29.95,SE,132,8.0,11.0,70,0.00,,,0.00,Wunderground v.1.15,2013-03-18 04:43:00,
2013-03-17 23:49:00,27.1,18.9,29.94,SSE,155,8.0,12.0,71,0.00,,,0.00,Wunderground v.1.15,2013-03-18 04:49:00,
2013-03-17 23:54:00,27.4,19.9,29.93,SSE,151,15.0,15.0,73,0.00,,,0.00,Wunderground v.1.15,2013-03-18 04:54:00,
2013-03-17 23:59:00,27.6,20.4,29.92,SSE,152,10.0,16.0,74,0.00,,,0.00,Wunderground v.1.15,2013-03-18 04:59:00,